Probability
10 26 71 74 68 74 61 55 52 58 65 65 68 74 74 71 74 71 74 77 81 81 81 77 71 74 74 81 81 74 81 77 81 77 71 71 77 81 81 74 74 61 77
10 29 77 74 68 71 55 58 65 61 58 58 65 71 61 68 74 77 74 74 77 81 81 74 74 71 65 74 74 77 71 68 65 61 61 68 71 74 84 68 68 65 74
10 26 61 68 68 71 65 61 61 58 55 52 58 58 52 65 71 71 71 74 77 71 77 84 71 68 65 71 68 65 61 58 68 52 52 26 45 74 71 74 74 74 74
13 19 39 68 71 68 65 65 65 55 58 55 52 42 52 55 58 58 68 68 65 65 65 68 71 68 65 58 58 52 52 42 52 42 19 16 29 65 68 71 71 71 68
13 16 45 74 68 68 55 68 71 65 61 58 55 55 55 58 61 52 61 65 68 61 61 61 58 61 52 42 42 42 55 52 45 26 10 10 26 58 68 71 74 68 55
13 19 42 77 71 61 55 68 65 61 58 48 55 58 58 61 55 61 61 65 65 58 55 55 52 52 42 42 39 39 45 61 32 6 10 6 26 58 52 55 68 58 55
13 19 39 77 68 68 68 65 65 68 55 52 48 52 58 52 45 52 58 58 58 52 52 52 39 39 39 35 32 45 52 55 13 6 3 6 29 55 52 55 61 55 55
13 23 32 68 68 68 68 68 61 61 65 52 55 45 39 45 45 42 42 52 58 52 42 39 45 48 48 48 55 55 61 52 13 6 6 6 42 58 45 55 58 55 55
10 23 32 35 55 61 65 71 65 68 68 61 48 48 45 42 39 39 35 35 48 52 42 48 48 48 55 55 55 55 58 55 13 3 3 6 45 68 52 48 48 45 45
6 13 16 23 23 35 39 58 61 61 68 68 65 55 52 39 35 39 42 42 42 42 39 39 45 39 58 58 52 55 52 35 10 6 3 16 55 65 71 55 52 39 42
10 3 13 13 10 10 23 42 52 58 61 61 52 45 42 16 23 35 29 45 48 45 39 42 55 58 55 45 55 55 39 13 3 0 3 32 61 65 65 58 55 42 35
6 10 3 10 10 6 13 13 16 19 16 16 13 23 10 13 10 16 42 35 45 45 39 48 45 48 26 10 16 35 6 3 3 0 0 35 61 55 58 61 52 35 26
13 13 13 6 6 3 6 13 13 10 10 10 6 6 3 3 6 13 10 23 16 23 10 23 35 16 10 6 3 0 0 3 3 3 0 39 61 61 55 55 45 42 29
13 13 13 6 6 3 6 13 6 10 10 10 10 6 3 3 3 3 0 0 0 0 0 0 3 3 3 0 3 3 0 3 3 0 0 45 55 58 48 52 48 39 39
16 16 16 13 6 3 6 6 6 6 6 6 10 6 6 10 6 3 3 0 0 0 0 0 0 0 3 3 0 0 0 3 0 0 0 42 45 55 48 39 35 45 45
16 16 16 10 6 6 6 10 10 10 6 6 10 10 13 10 0 0 6 3 3 3 3 3 3 3 3 0 0 0 0 0 3 0 0 23 42 48 48 45 39 42 42
16 16 16 13 10 3 13 13 10 10 10 10 10 6 13 10 6 3 6 6 6 6 3 0 3 0 0 0 0 0 0 0 0 0 0 6 23 45 48 52 48 45 42
16 16 13 19 16 13 13 10 10 6 10 10 10 6 13 6 6 3 3 3 3 3 0 3 3 0 0 0 0 0 3 3 3 3 3 3 6 13 26 45 52 48 48
13 13 16 16 16 13 13 10 10 10 6 6 10 13 16 13 10 6 6 3 3 3 3 3 6 3 0 0 0 0 0 0 3 3 3 3 3 3 10 19 48 52 45
13 10 16 16 16 16 19 13 10 10 10 10 13 13 13 23 16 10 6 3 3 6 3 0 0 0 0 0 3 3 0 3 3 3 3 3 6 6 3 6 19 29 45
19 16 19 6 13 10 13 16 13 10 10 10 10 13 19 19 16 13 6 3 3 3 3 6 10 3 3 3 3 3 0 0 3 3 0 3 6 6 6 0 3 6 13
29 29 16 16 13 19 10 13 10 10 10 16 6 13 23 26 23 16 10 10 6 3 3 6 6 3 3 3 3 3 3 0 0 0 0 3 3 0 6 3 3 6 3
29 29 32 23 23 23 19 23 13 10 10 13 13 10 13 16 19 19 13 13 13 6 6 6 6 6 6 6 3 3 3 0 0 0 0 0 0 0 3 6 3 0 3
23 23 26 19 26 19 23 29 16 16 16 13 10 10 10 10 19 23 19 13 13 6 6 6 6 6 10 6 6 3 3 0 0 0 0 0 0 0 0 0 3 3 3
29 26 23 23 23 26 19 23 13 13 10 16 10 10 10 13 13 19 13 13 16 10 6 6 13 6 6 3 6 6 6 0 0 0 0 0 0 0 0 0 0 0 3
26 26 23 23 26 26 23 16 16 13 13 19 16 13 10 10 16 23 16 13 13 16 13 13 10 13 10 3 3 3 6 10 3 0 0 0 0 0 0 0 0 0 0
Height
5890 5889 5888 5888 5889 5889 5889 5889 5890 5890 5890 5890 5891 5891 5891 5892 5892 5893 5893 5894 5895 5896 5897 5897 5898 5898 5899 5899 5900 5900 5901 5901 5901 5902 5902 5902 5902 5902 5902 5902 5902 5901 5901
5889 5888 5887 5887 5888 5889 5889 5889 5889 5889 5890 5890 5891 5891 5891 5892 5892 5892 5892 5893 5894 5895 5896 5897 5898 5898 5899 5900 5900 5901 5901 5902 5902 5902 5902 5902 5903 5903 5902 5902 5902 5901 5901
5889 5888 5887 5887 5888 5889 5889 5889 5889 5889 5890 5890 5890 5891 5891 5891 5892 5892 5892 5893 5894 5895 5896 5897 5898 5898 5899 5900 5900 5901 5901 5902 5902 5902 5902 5903 5903 5903 5903 5902 5902 5901 5901
5889 5888 5887 5888 5888 5888 5889 5889 5888 5889 5889 5889 5890 5890 5891 5891 5891 5891 5891 5892 5893 5894 5895 5896 5897 5898 5899 5900 5900 5901 5901 5902 5902 5903 5903 5903 5903 5903 5903 5902 5902 5902 5901
5888 5888 5887 5887 5888 5888 5888 5888 5889 5888 5888 5889 5889 5890 5889 5889 5889 5889 5890 5891 5893 5894 5895 5896 5897 5898 5899 5900 5900 5901 5901 5902 5903 5903 5903 5903 5903 5903 5903 5902 5902 5902 5901
5888 5888 5887 5887 5887 5888 5888 5888 5888 5888 5888 5888 5888 5888 5888 5888 5888 5888 5889 5890 5891 5893 5894 5895 5897 5898 5899 5899 5900 5901 5901 5902 5902 5903 5903 5903 5903 5903 5903 5903 5903 5902 5901
5888 5888 5887 5887 5887 5888 5888 5888 5888 5888 5888 5888 5888 5887 5887 5887 5887 5887 5888 5889 5890 5892 5893 5894 5896 5898 5898 5899 5900 5901 5901 5902 5902 5903 5903 5903 5903 5903 5903 5903 5902 5902 5902
5889 5888 5887 5887 5887 5887 5888 5888 5888 5887 5887 5887 5887 5886 5885 5885 5885 5886 5887 5888 5889 5891 5892 5894 5896 5897 5898 5899 5900 5900 5901 5902 5902 5903 5903 5903 5903 5903 5903 5903 5902 5902 5902
5889 5888 5887 5887 5887 5887 5887 5887 5887 5887 5887 5886 5886 5885 5884 5884 5884 5885 5886 5887 5889 5890 5892 5894 5895 5896 5897 5898 5899 5900 5901 5901 5902 5902 5902 5903 5903 5903 5903 5903 5902 5902 5901
5889 5888 5887 5887 5887 5887 5886 5886 5886 5886 5886 5885 5885 5884 5883 5883 5883 5884 5885 5886 5888 5889 5891 5893 5894 5895 5897 5898 5899 5899 5900 5901 5901 5902 5902 5902 5903 5902 5902 5902 5902 5901 5901
5890 5889 5888 5887 5887 5886 5886 5886 5885 5885 5885 5884 5884 5884 5883 5883 5883 5883 5884 5885 5887 5889 5890 5892 5893 5895 5896 5897 5898 5899 5900 5900 5901 5901 5901 5902 5902 5902 5901 5901 5901 5900 5900
5891 5890 5888 5888 5887 5886 5885 5885 5884 5884 5884 5883 5883 5883 5883 5883 5883 5883 5883 5884 5886 5888 5889 5891 5892 5894 5895 5896 5898 5898 5899 5900 5900 5900 5900 5901 5901 5901 5901 5900 5900 5900 5899
5892 5891 5889 5888 5887 5886 5885 5884 5884 5884 5884 5883 5883 5883 5883 5883 5883 5883 5883 5884 5885 5887 5888 5890 5891 5893 5894 5896 5897 5898 5898 5899 5899 5899 5899 5899 5900 5900 5900 5899 5899 5899 5899
5893 5891 5890 5888 5887 5886 5885 5884 5884 5883 5883 5883 5883 5883 5883 5883 5883 5883 5884 5884 5885 5886 5887 5889 5890 5892 5893 5895 5896 5896 5897 5898 5898 5898 5898 5898 5898 5898 5898 5899 5898 5898 5898
5894 5892 5890 5889 5887 5886 5885 5885 5884 5883 5883 5883 5883 5883 5883 5883 5883 5883 5884 5884 5885 5886 5887 5888 5889 5891 5892 5894 5895 5896 5896 5897 5897 5897 5897 5897 5897 5897 5897 5897 5897 5897 5897
5895 5893 5891 5889 5888 5887 5886 5885 5883 5883 5883 5883 5883 5883 5883 5883 5883 5883 5884 5884 5885 5885 5886 5887 5888 5890 5892 5893 5894 5895 5895 5895 5896 5896 5896 5896 5896 5896 5896 5896 5896 5895 5895
5896 5893 5891 5890 5888 5887 5886 5885 5883 5883 5883 5883 5883 5883 5882 5882 5883 5883 5884 5884 5885 5885 5885 5886 5888 5889 5891 5892 5893 5893 5894 5894 5894 5894 5894 5894 5894 5894 5894 5894 5894 5894 5893
5897 5895 5892 5890 5889 5888 5886 5884 5884 5883 5883 5883 5883 5883 5882 5882 5883 5883 5884 5884 5885 5885 5885 5886 5887 5888 5890 5891 5892 5892 5893 5892 5893 5893 5893 5893 5892 5893 5893 5892 5892 5892 5892
5898 5896 5894 5891 5890 5888 5887 5885 5884 5884 5883 5883 5883 5883 5883 5883 5883 5883 5883 5884 5884 5885 5885 5886 5887 5888 5889 5890 5891 5891 5891 5891 5891 5891 5891 5891 5891 5891 5891 5890 5890 5890 5890
5898 5896 5894 5892 5890 5889 5888 5886 5885 5885 5885 5884 5883 5883 5883 5883 5883 5883 5883 5884 5884 5885 5886 5886 5887 5888 5889 5889 5889 5890 5890 5890 5890 5889 5889 5889 5889 5888 5888 5888 5888 5887 5887
5899 5897 5895 5893 5891 5889 5888 5888 5887 5886 5886 5885 5885 5884 5884 5884 5884 5884 5883 5884 5884 5885 5885 5886 5886 5887 5887 5888 5888 5888 5888 5888 5888 5887 5887 5887 5887 5886 5886 5886 5885 5885 5885
5899 5897 5895 5893 5891 5890 5889 5888 5888 5887 5886 5886 5885 5885 5885 5884 5884 5883 5883 5884 5884 5884 5884 5885 5885 5885 5886 5886 5887 5887 5887 5887 5886 5886 5886 5885 5885 5885 5884 5883 5883 5882 5882
5899 5897 5895 5893 5891 5890 5890 5889 5888 5887 5887 5886 5886 5886 5885 5885 5884 5884 5883 5883 5883 5883 5884 5884 5884 5884 5884 5885 5885 5885 5885 5885 5885 5885 5884 5884 5883 5883 5882 5881 5880 5880 5879
5898 5896 5894 5893 5891 5890 5889 5889 5888 5888 5887 5887 5886 5886 5885 5885 5884 5883 5883 5882 5882 5882 5882 5882 5883 5883 5883 5883 5883 5883 5883 5883 5882 5882 5882 5881 5881 5880 5880 5879 5878 5877 5877
5898 5896 5894 5892 5891 5889 5888 5888 5888 5887 5887 5886 5886 5885 5885 5884 5884 5883 5882 5882 5881 5881 5881 5881 5881 5881 5881 5881 5880 5880 5880 5880 5880 5879 5879 5879 5878 5877 5876 5876 5875 5874 5873
5897 5895 5893 5891 5890 5889 5888 5887 5887 5886 5886 5885 5885 5884 5884 5883 5883 5882 5881 5880 5880 5879 5879 5879 5879 5878 5878 5878 5878 5877 5877 5877 5877 5876 5876 5876 5875 5875 5873 5872 5871 5871 5870
Wind_Speed
4 3 2 1 1 1 1 0 1 1 2 2 2 2 4 5 6 7 7 7 5 5 5 5 5 6 7 7 6 7 6 5 5 5 4 4 3 3 3 2 3 2 3
4 3 2 1 1 0 1 1 1 2 3 3 3 3 4 4 5 7 8 7 6 6 6 5 5 5 6 6 6 6 6 5 5 5 5 4 3 3 2 2 2 2 2
4 3 2 1 0 0 1 1 2 2 3 3 4 4 4 4 4 6 7 7 7 7 7 6 5 6 6 6 6 6 5 5 4 5 5 4 3 3 2 2 2 2 2
5 4 3 2 1 0 0 1 2 3 3 3 3 5 5 4 5 6 7 8 7 6 6 6 6 6 6 6 6 6 6 5 4 4 4 4 3 3 3 2 2 2 2
5 4 3 3 2 1 0 0 0 1 2 2 3 4 5 5 5 5 7 7 7 7 7 6 6 6 6 6 6 6 6 5 4 4 4 3 3 3 3 2 2 2 2
6 5 4 3 2 1 1 1 0 0 0 1 2 3 4 5 5 6 7 8 8 7 6 5 5 6 6 6 6 6 5 5 3 4 3 3 3 3 2 2 2 1 2
6 5 5 4 2 2 1 1 0 0 0 1 2 3 3 5 6 7 8 7 7 8 7 6 5 6 5 4 5 5 4 4 3 3 2 3 2 2 2 2 1 1 1
7 6 5 4 3 2 1 0 0 1 1 1 2 3 3 5 6 7 7 7 7 8 7 6 6 6 6 4 4 4 4 3 2 2 2 2 2 3 2 2 1 1 1
8 7 5 4 3 2 1 0 0 0 1 1 2 3 3 5 6 6 6 7 7 8 7 7 6 6 6 5 4 4 4 4 3 2 3 3 2 2 2 2 1 2 1
8 7 6 5 4 3 2 1 1 1 1 1 2 3 3 3 4 5 6 7 8 8 7 7 6 6 6 5 4 3 4 4 3 3 3 3 3 2 2 2 1 1 1
8 7 6 6 5 5 3 2 2 1 1 2 2 3 3 3 3 5 6 7 7 7 7 7 6 7 7 5 4 3 3 3 3 4 4 3 3 3 2 2 2 2 2
8 7 6 6 6 5 4 3 2 2 1 1 2 2 3 2 3 4 6 7 7 7 7 7 7 8 7 6 5 4 3 3 4 4 4 4 3 4 4 3 3 3 2
9 8 7 6 6 5 4 3 3 3 2 2 2 2 2 2 3 4 5 6 7 7 7 7 8 7 6 6 5 4 3 3 3 4 4 4 4 4 4 4 4 3 3
10 9 8 6 6 5 5 4 3 3 3 3 2 2 2 1 2 3 4 5 5 6 7 7 7 7 6 5 5 4 3 3 3 4 4 4 4 4 4 4 4 4 4
11 10 9 7 6 6 5 5 4 3 3 3 3 2 1 1 3 3 3 4 4 4 5 6 6 7 7 6 5 4 4 4 3 4 4 4 5 4 4 4 4 5 5
12 11 10 9 7 6 6 5 5 4 4 3 2 2 2 2 3 3 3 3 3 3 4 5 6 6 6 6 5 5 5 4 4 4 4 5 5 5 5 5 6 5 6
13 12 11 10 8 7 6 5 5 4 4 3 2 2 2 2 3 3 3 3 3 3 4 5 6 6 6 6 6 5 5 5 5 5 5 5 5 5 6 6 6 7 7
13 13 12 10 9 8 7 6 5 5 5 4 3 2 2 2 2 2 2 3 3 3 4 5 6 6 6 6 5 4 4 5 4 5 4 5 6 6 6 7 7 8 8
12 11 11 10 9 8 7 6 5 5 5 4 3 2 2 1 1 1 2 2 2 3 4 5 5 6 6 6 6 6 5 5 4 4 5 5 6 7 8 7 8 8 8
12 11 10 9 8 7 7 6 6 5 5 4 4 2 2 2 1 2 2 2 2 3 4 4 5 6 6 6 6 6 6 6 5 5 5 5 6 6 7 8 8 9 9
12 10 9 9 8 7 6 5 6 5 5 4 4 3 2 2 2 1 1 1 2 3 3 4 5 5 6 6 6 7 7 7 6 6 6 6 5 6 6 7 7 8 9
12 10 9 9 7 6 6 5 5 5 4 3 3 3 3 2 2 1 1 0 1 2 3 4 4 5 6 6 7 8 8 7 6 5 5 5 6 7 7 8 8 8 9
11 11 9 8 7 6 5 5 5 4 4 3 3 3 3 3 3 2 1 1 1 1 3 4 4 4 5 6 7 7 7 7 7 6 6 7 7 8 8 8 8 9 9
11 10 9 8 6 5 5 5 5 5 4 3 3 2 3 3 3 3 2 2 2 2 3 4 5 5 6 6 7 7 8 8 7 7 8 8 8 9 9 9 9 10 10
12 10 9 8 6 6 5 5 6 5 4 4 3 3 3 3 3 3 3 2 2 2 3 4 6 6 7 7 8 8 8 8 8 8 9 9 9 10 10 10 10 10 11
12 11 10 7 6 6 6 6 5 5 5 4 4 4 4 4 4 4 4 4 4 4 5 5 6 7 8 8 8 8 9 9 10 9 10 10 11 11 11 12 12 13 13
Wind_Direction
17 1 353 14 78 87 105 131 174 193 198 184 180 197 197 188 193 195 189 178 171 176 180 182 177 174 176 173 167 165 166 162 165 159 151 150 157 144 139 139 132 125 121
9 359 350 354 83 99 100 172 218 216 209 208 201 202 203 194 198 199 195 190 188 188 189 184 181 169 170 175 174 170 170 169 171 164 155 155 154 149 145 131 123 116 113
6 9 17 36 86 300 102 146 197 191 204 212 211 213 212 216 210 200 201 203 198 195 196 196 189 173 170 168 171 173 170 165 165 162 159 160 153 153 150 129 113 107 128
12 12 17 22 40 41 52 131 155 168 191 208 214 218 217 220 209 204 203 211 206 203 200 200 196 188 178 173 173 165 159 157 146 154 159 168 162 162 160 130 115 109 122
14 12 17 34 38 40 26 70 136 186 180 205 214 217 221 216 207 209 204 206 207 203 201 203 200 196 194 183 170 164 162 159 154 158 165 172 170 166 147 119 110 131 141
19 17 22 25 32 56 37 27 70 59 223 202 208 223 216 209 202 198 199 198 199 197 202 205 210 199 201 188 175 169 166 162 160 166 177 186 179 167 153 115 112 116 136
29 28 30 34 38 60 55 48 1 331 282 235 223 225 208 204 201 197 197 196 197 200 205 206 203 200 199 199 184 175 166 161 156 175 187 192 186 173 156 138 142 130 147
32 33 39 38 44 45 47 64 262 237 245 262 246 231 212 205 201 196 190 193 195 197 199 198 201 202 198 197 197 196 186 179 178 192 188 195 187 186 178 167 194 189 170
33 32 33 35 37 45 43 41 260 242 221 224 233 226 191 196 192 190 192 198 193 191 193 200 201 203 195 193 193 201 198 194 200 204 205 207 203 200 208 221 240 224 214
31 33 31 31 28 32 26 55 26 295 248 244 236 224 190 185 192 199 193 197 197 196 192 197 198 204 198 195 200 211 210 205 212 218 221 214 221 225 210 219 233 241 228
31 30 31 35 36 39 47 44 27 2 291 271 240 230 221 181 194 206 191 193 197 197 193 195 195 198 199 198 203 210 210 217 234 236 239 233 240 244 236 227 237 248 248
34 31 33 35 38 43 53 43 35 30 340 289 210 208 203 207 204 188 187 194 200 200 196 197 197 194 198 200 204 209 217 230 240 237 244 238 247 245 256 248 247 248 244
32 31 32 31 42 52 56 59 57 67 51 64 107 143 170 198 191 186 192 193 194 196 199 199 197 197 199 197 201 207 221 240 230 236 241 251 251 249 261 250 255 249 251
29 32 32 29 38 46 52 55 55 71 69 78 100 115 154 182 181 187 196 196 194 194 199 204 198 197 198 196 200 211 229 233 232 236 241 251 251 251 256 253 258 253 249
30 28 29 31 37 45 59 61 56 56 73 95 106 108 119 147 156 149 172 192 202 200 202 207 209 197 197 201 210 220 230 224 235 248 250 253 252 251 254 247 247 252 255
27 26 32 36 41 46 57 62 61 63 72 99 107 96 117 130 145 147 166 179 187 185 192 199 200 196 198 204 212 223 225 232 242 253 255 255 253 253 252 246 252 255 258
26 29 30 33 37 40 44 51 62 75 73 79 87 88 110 119 138 165 178 182 183 179 190 194 196 204 203 207 214 222 229 235 243 244 247 250 253 257 258 256 260 256 257
27 27 28 30 32 35 40 48 63 81 84 77 73 78 96 108 140 179 191 189 191 187 189 191 194 201 203 210 216 220 233 238 249 253 254 261 262 259 256 255 256 256 261
24 24 24 27 30 32 40 51 58 71 75 77 79 85 95 90 128 166 188 197 186 181 181 189 192 203 210 217 223 227 235 246 256 265 269 266 270 267 263 260 258 257 264
20 20 20 21 26 30 38 50 56 57 60 66 66 79 87 66 109 140 168 175 179 179 182 195 205 217 227 232 230 232 236 244 253 266 268 265 271 268 260 258 260 258 263
19 21 21 21 23 29 35 46 49 49 53 57 61 75 76 56 42 105 141 165 195 199 203 213 221 226 235 238 235 239 244 251 265 273 272 269 265 268 269 266 264 262 263
15 15 15 16 18 21 24 36 42 42 43 41 43 43 41 35 14 23 42 272 229 226 228 229 234 237 241 239 238 244 253 259 266 270 267 273 269 269 267 267 268 265 267
13 13 12 12 12 16 18 17 22 24 23 21 23 23 18 17 7 10 345 323 299 247 237 242 241 246 248 245 244 245 248 254 260 264 269 274 273 273 272 268 266 268 269
6 7 4 360 358 356 358 1 360 0 1 359 359 357 350 354 1 354 335 292 270 266 258 252 253 254 255 256 253 251 251 251 255 260 267 271 272 272 273 270 266 267 266
2 0 359 353 345 339 338 348 351 342 337 334 331 330 325 331 340 338 324 315 270 266 266 257 257 255 258 260 258 256 252 253 255 258 262 270 275 277 280 277 275 269 270
356 353 352 345 337 330 332 333 332 332 326 318 317 313 310 311 317 322 323 312 300 284 271 266 268 262 261 263 259 256 255 260 262 265 266 271 275 278 281 279 277 272 271